[[{"header":{"parameterUnit":"m.s-1","parameterCategory":1,"la1":30.2991,"la2":30.254,"lo1":-89.0895,"lo2":-89.0444,"dy":0.0017,"dx":0.0017,"nx":28,"ny":28,"refTime":"2023-08-23T03:00:00:Z","depth":0,"parameterNumber":2,"parameterNumberName":"U-component_of_WINDS"},"data":[0,0,0,0,0,0,0,0,0,0,0,0,0,0,0,0,0,0,0,0,0,0,0,0,0,0,0,0,0,0,0,0,0,0,0,0,0,0,0,0,0,0,0,0,0,0,0,0,0,0,0,0,0,0,0,0,0,0,-1.7516,-1.7517,0,-1.7537,-1.7537,-1.7537,-1.7517,-1.7516,-1.7515,-1.7514,-1.7535,-1.7537,-1.7538,0,0,0,0,0,0,0,0,0,0,0,0,0,-1.7461,-1.7462,-1.7516,-1.7517,-1.7517,-1.7537,-1.7537,-1.7537,-1.7517,-1.7516,-1.7515,-1.7514,-1.7535,-1.7536,-1.7538,0,0,0,0,0,0,0,0,0,0,0,0,0,-1.7483,-1.7462,-1.7516,-1.7509,-1.7509,-1.7537,-1.7537,-1.7537,-1.7517,-1.7516,-1.7515,-1.7514,-1.7534,-1.7536,-1.7538,-1.7574,0,0,-1.7544,-1.7545,0,0,0,0,0,0,0,0,-1.7482,-1.7485,-1.751,-1.751,-1.7509,-1.7523,-1.7525,-1.755,-1.7517,-1.7514,-1.7514,-1.7513,-1.7532,-1.7534,-1.7541,-1.7575,-1.7576,-1.7544,-1.7546,-1.7546,-1.7547,0,0,0,0,0,0,0,-1.7481,-1.7485,-1.7524,-1.751,-1.751,-1.7505,-1.7507,-1.753,-1.753,-1.7514,-1.7513,-1.7515,-1.7532,-1.7539,-1.7541,-1.7576,-1.7544,-1.7546,-1.7547,-1.7548,-1.7642,-1.7643,0,0,0,0,0,0,-1.748,-1.7483,-1.7524,-1.7525,-1.7492,-1.7507,-1.7509,-1.752,-1.7529,-1.753,-1.7516,-1.7514,-1.7536,-1.7539,-1.7542,-1.7585,-1.7546,-1.7548,-1.7549,-1.7641,-1.7642,-1.7644,0,0,0,0,0,0,-1.7479,-1.7484,-1.7523,-1.7504,-1.7508,-1.7509,-1.7521,-1.7521,-1.7528,-1.7531,-1.7531,-1.7524,-1.7535,-1.7539,-1.7566,-1.7585,-1.7549,-1.7551,-1.7639,-1.7641,-1.7643,-1.7671,0,0,0,0,0,0,-1.7477,-1.7483,-1.7497,-1.7504,-1.751,-1.7547,-1.7523,-1.7522,-1.7531,-1.7529,-1.7538,-1.7538,-1.7535,-1.7564,-1.7568,-1.7587,-1.7552,-1.7638,-1.764,-1.7643,-1.7668,-1.7674,-1.7678,0,0,0,0,0,-1.7475,-1.7504,-1.7498,-1.7503,-1.7526,-1.7548,-1.7551,-1.7547,-1.7533,-1.7547,-1.7549,-1.7538,-1.7583,-1.7567,-1.7572,-1.7592,-1.7636,-1.7639,-1.7642,-1.7666,-1.7673,-1.7678,0,0,0,0,0,0,-1.7498,-1.7505,-1.7498,-1.7529,-1.7539,-1.7545,-1.7562,-1.7554,-1.7567,-1.7564,-1.7558,-1.756,-1.759,-1.7593,-1.7576,-1.7627,-1.7607,-1.7611,-1.7624,-1.763,-1.7635,-1.7633,-1.7554,0,0,0,0,0,-1.7507,-1.7524,-1.7529,-1.7556,-1.7561,-1.7561,-1.757,-1.7566,-1.7575,-1.7579,-1.7583,-1.7593,-1.7609,-1.7619,-1.7635,-1.7669,-1.7671,-1.7685,-1.769,-1.7694,-1.7698,-1.7717,-1.7723,-1.7654,-1.7654,-1.7654,0,0,-1.7525,-1.7531,-1.7542,-1.7561,-1.7568,-1.7586,-1.7564,-1.7584,-1.7598,-1.7582,-1.7608,-1.7612,-1.7622,-1.7653,-1.7667,-1.7657,-1.7718,-1.7698,-1.7701,-1.7703,-1.7721,-1.7727,-1.7733,-1.7656,-1.7655,-1.7655,0,0,-1.7568,-1.7574,-1.7598,-1.7605,-1.7615,-1.7615,-1.762,-1.7628,-1.763,-1.7656,-1.7645,-1.7661,-1.7689,-1.7697,-1.7704,-1.7751,-1.7742,-1.7756,-1.7782,-1.78,-1.7806,-1.7811,-1.7827,-1.7833,-1.776,-1.776,-1.776,0,-1.759,-1.7616,-1.7611,-1.7632,-1.7641,-1.7628,-1.7652,-1.7659,-1.7674,-1.768,-1.7669,-1.7704,-1.771,-1.7743,-1.7755,-1.7761,-1.7768,-1.7755,-1.7805,-1.781,-1.7815,-1.783,-1.7837,-1.7762,-1.7761,-1.7761,-1.7761,0,-1.7642,-1.7661,-1.7679,-1.7694,-1.7705,-1.7727,-1.7726,-1.7737,-1.7733,-1.7734,-1.7761,-1.7768,-1.7784,-1.7792,-1.7787,-1.7824,-1.7818,-1.7806,-1.7786,-1.7823,-1.7838,-1.7844,-1.7764,-1.7763,-1.7763,-1.7762,0,0,-1.7699,-1.7711,-1.7718,-1.7725,-1.7735,-1.775,-1.7772,-1.7788,-1.7798,-1.7809,-1.7828,-1.7852,-1.7842,-1.785,-1.7847,-1.7863,-1.79,-1.7849,-1.7849,-1.7858,-1.7942,-1.795,-1.7958,-1.7894,-1.7895,-1.7896,-1.7941,0,-1.7743,-1.7781,-1.7777,-1.7813,-1.7831,-1.7819,-1.7839,-1.7847,-1.7849,-1.7864,-1.7866,-1.7884,-1.7868,-1.7874,-1.7889,-1.7892,-1.7916,-1.7889,-1.7911,-1.7912,-1.7909,-1.7965,-1.7974,-1.8017,-1.7947,-1.7948,-1.7948,0,-1.7798,-1.7811,-1.7849,-1.7857,-1.7864,-1.7882,-1.7897,-1.7911,-1.7921,-1.7921,-1.7932,-1.7925,-1.7948,-1.7927,-1.7959,-1.794,-1.7949,-1.7952,-1.7953,-1.7955,-1.7932,-1.7969,-1.803,-1.8036,-1.7957,-1.7957,-1.7956,0,-1.7836,-1.7863,-1.7889,-1.7895,-1.7906,-1.7918,-1.7923,-1.7932,-1.7942,-1.7955,-1.7962,-1.7977,-1.7986,-1.7998,-1.7996,-1.7981,-1.8028,-1.8008,-1.8029,-1.8029,-1.8039,-1.8039,-1.8103,-1.8045,-1.8045,-1.8045,-1.8045,0,-1.7884,-1.7908,-1.7907,-1.7923,-1.7949,-1.7945,-1.7972,-1.7975,-1.7983,-1.8,-1.7991,-1.8007,-1.8004,-1.802,-1.8019,-1.8045,-1.8049,-1.805,-1.8049,-1.8051,-1.8051,-1.8056,-1.8054,-1.8047,-1.8047,-1.8046,-1.8046,0,-1.7931,-1.7931,-1.7959,-1.7967,-1.7969,-1.7989,-1.7995,-1.8011,-1.8012,-1.8034,-1.8039,-1.8041,-1.8059,-1.8059,-1.808,-1.8079,-1.8112,-1.8108,-1.8108,-1.8107,-1.8129,-1.8127,-1.82,-1.8209,-1.8145,-1.8146,-1.8146,0,-1.7962,-1.7981,-1.799,-1.8001,-1.8007,-1.8024,-1.8034,-1.8031,-1.8042,-1.8055,-1.8069,-1.8087,-1.8101,-1.8132,-1.8135,-1.8152,-1.8148,-1.8172,-1.815,-1.8151,-1.8148,-1.8147,-1.8149,-1.8176,-1.8177,-1.8178,-1.8178,0,-1.8017,-1.8017,-1.8032,-1.8047,-1.806,-1.8072,-1.8082,-1.8092,-1.809,-1.8103,-1.8122,-1.8133,-1.8155,-1.8173,-1.8188,-1.8194,-1.8186,-1.8185,-1.8191,-1.8193,-1.8192,-1.8193,-1.812,-1.8183,-1.8183,-1.8182,-1.8182,-1.8182,-1.8058,-1.8073,-1.8083,-1.81,-1.8108,-1.8118,-1.8134,-1.8137,-1.8152,-1.817,-1.8167,-1.8188,-1.8198,-1.8219,-1.8226,-1.8242,-1.8234,-1.8242,-1.8245,-1.8247,-1.8249,-1.819,-1.8245,-1.8245,-1.8245,-1.8245,-1.8245,0,-1.8113,-1.8118,-1.8134,-1.815,-1.8163,-1.8155,-1.8166,-1.8179,-1.8197,-1.8207,-1.8222,-1.8244,-1.8261,-1.8266,-1.8283,-1.8296,-1.8293,-1.83,-1.8299,-1.8301,-1.8256,-1.8249,-1.8303,-1.8303,-1.8303,-1.8303,-1.8302,-1.8302,-1.8143,-1.8169,-1.8169,-1.8199,-1.8205,-1.8226,-1.8233,-1.8243,-1.8251,-1.8276,-1.829,-1.8293,-1.8302,-1.8319,-1.8335,-1.8336,-1.8343,-1.8352,-1.8352,-1.831,-1.8304,-1.8298,-1.8292,-1.8354,-1.8354,-1.8395,-1.8396,-1.8396]},{"header":{"parameterUnit":"m.s-1","parameterCategory":1,"la1":30.2991,"la2":30.254,"lo1":-89.0895,"lo2":-89.0444,"dy":0.0017,"dx":0.0017,"nx":28,"ny":28,"refTime":"2023-08-23T03:00:00:Z","depth":0,"parameterNumber":3,"parameterNumberName":"V-component_of_WINDS"},"data":[0,0,0,0,0,0,0,0,0,0,0,0,0,0,0,0,0,0,0,0,0,0,0,0,0,0,0,0,0,0,0,0,0,0,0,0,0,0,0,0,0,0,0,0,0,0,0,0,0,0,0,0,0,0,0,0,0,0,3.5348,3.5348,0,3.5345,3.5345,3.5345,3.5305,3.5305,3.5304,3.5303,3.5299,3.5299,3.53,0,0,0,0,0,0,0,0,0,0,0,0,0,3.5321,3.5322,3.5348,3.5348,3.5348,3.5345,3.5345,3.5345,3.5306,3.5304,3.5303,3.5302,3.5298,3.5299,3.53,0,0,0,0,0,0,0,0,0,0,0,0,0,3.5327,3.5322,3.5348,3.5328,3.5326,3.5345,3.5345,3.5345,3.5306,3.5304,3.5303,3.5302,3.5298,3.5299,3.5301,3.5338,0,0,3.5304,3.5305,0,0,0,0,0,0,0,0,3.5326,3.5328,3.5331,3.533,3.5328,3.5324,3.5334,3.5342,3.5306,3.5314,3.5303,3.5301,3.5308,3.5309,3.5311,3.5337,3.5337,3.5304,3.5305,3.5306,3.5306,0,0,0,0,0,0,0,3.5326,3.5328,3.5347,3.5331,3.5329,3.5319,3.5319,3.5335,3.5319,3.5313,3.531,3.531,3.5307,3.531,3.5311,3.5337,3.5304,3.5305,3.5306,3.5307,3.5393,3.5395,0,0,0,0,0,0,3.5328,3.5328,3.5347,3.5347,3.5323,3.5321,3.532,3.5327,3.5319,3.5316,3.5312,3.5308,3.5309,3.5309,3.5311,3.5353,3.5306,3.5307,3.5307,3.5392,3.5394,3.5395,0,0,0,0,0,0,3.5328,3.5331,3.5347,3.5336,3.5338,3.5323,3.5331,3.5327,3.533,3.5318,3.5315,3.5317,3.5308,3.5309,3.5331,3.5352,3.5307,3.5308,3.539,3.5392,3.5395,3.5438,0,0,0,0,0,0,3.5327,3.5331,3.5344,3.5337,3.5338,3.5368,3.5332,3.5328,3.5333,3.5329,3.5323,3.532,3.5307,3.5329,3.5332,3.5353,3.5309,3.5388,3.5391,3.5394,3.5434,3.5441,3.5447,0,0,0,0,0,3.5327,3.5357,3.5345,3.5348,3.5355,3.5369,3.537,3.5353,3.5334,3.5348,3.534,3.5321,3.535,3.5332,3.5335,3.5356,3.5386,3.539,3.5394,3.5432,3.544,3.5447,0,0,0,0,0,0,3.5367,3.5355,3.5342,3.5371,3.5371,3.5362,3.5379,3.5363,3.5368,3.5364,3.5344,3.5343,3.5368,3.5365,3.5345,3.5392,3.5365,3.5369,3.5393,3.5401,3.5407,3.5406,3.531,0,0,0,0,0,3.5379,3.5391,3.538,3.5407,3.5408,3.5394,3.5399,3.5386,3.5386,3.5385,3.5379,3.5379,3.5388,3.5394,3.5402,3.5434,3.5432,3.5451,3.5457,3.5462,3.5466,3.5482,3.549,3.5407,3.5407,3.5407,0,0,3.5404,3.5399,3.5408,3.5415,3.5413,3.5426,3.5394,3.5409,3.5418,3.5387,3.5408,3.5404,3.5402,3.543,3.5441,3.5427,3.5489,3.5467,3.5471,3.5472,3.5487,3.5494,3.5501,3.5409,3.5409,3.5409,0,0,3.5456,3.5454,3.5476,3.5475,3.5474,3.5464,3.547,3.5463,3.5459,3.548,3.5457,3.5468,3.5484,3.5484,3.5486,3.554,3.5521,3.5543,3.5576,3.5592,3.5598,3.5604,3.5622,3.5629,3.5547,3.5547,3.5547,0,3.5487,3.5506,3.5489,3.5505,3.5508,3.5483,3.5504,3.5504,3.5506,3.5508,3.5493,3.5513,3.551,3.5537,3.555,3.5553,3.5558,3.5542,3.5599,3.5605,3.561,3.5627,3.5634,3.5549,3.5549,3.5549,3.5548,0,3.5544,3.5557,3.5575,3.5576,3.5582,3.5601,3.5587,3.5595,3.5582,3.5575,3.5596,3.5592,3.5598,3.5604,3.5592,3.5629,3.562,3.5603,3.5575,3.562,3.5636,3.5642,3.5553,3.5552,3.5551,3.5551,0,0,3.5619,3.5612,3.5619,3.5619,3.5617,3.5626,3.5645,3.5651,3.5658,3.566,3.5674,3.5689,3.5672,3.5675,3.5663,3.5677,3.5719,3.5657,3.5657,3.5668,3.5759,3.5771,3.5779,3.5707,3.5709,3.571,3.5758,0,3.5668,3.5698,3.5684,3.5716,3.5727,3.5704,3.5719,3.5719,3.5713,3.5722,3.5715,3.5725,3.5703,3.5705,3.5718,3.5711,3.5736,3.5707,3.572,3.572,3.5719,3.5787,3.58,3.5846,3.5765,3.5766,3.5766,0,3.5729,3.5734,3.5767,3.5762,3.5767,3.5781,3.5786,3.5795,3.5794,3.5789,3.5792,3.5777,3.5794,3.5768,3.5791,3.5772,3.5776,3.5774,3.5775,3.5774,3.5745,3.5787,3.5861,3.5867,3.5776,3.5775,3.5774,0,3.578,3.5795,3.5816,3.5818,3.5813,3.5823,3.5822,3.582,3.5825,3.5829,3.5832,3.5839,3.5842,3.5848,3.5834,3.5817,3.5859,3.5832,3.5854,3.5855,3.5863,3.5862,3.5937,3.5869,3.5868,3.5868,3.5868,0,3.5835,3.5856,3.5839,3.5852,3.5874,3.5858,3.5881,3.5877,3.5876,3.5887,3.5868,3.5879,3.5862,3.5872,3.5862,3.5882,3.5884,3.588,3.5876,3.5881,3.5881,3.5882,3.5878,3.587,3.587,3.5869,3.5869,0,3.5894,3.5884,3.5905,3.5899,3.5898,3.5915,3.591,3.5922,3.5915,3.593,3.5933,3.5921,3.5932,3.592,3.5929,3.5923,3.595,3.5943,3.595,3.5947,3.597,3.5968,3.6047,3.6056,3.5983,3.5984,3.5984,0,3.593,3.5945,3.5941,3.5948,3.5947,3.5958,3.5963,3.5949,3.5955,3.5956,3.5967,3.5976,3.5983,3.6001,3.5993,3.6,3.5992,3.602,3.5993,3.5997,3.5991,3.599,3.5991,3.6025,3.6026,3.6026,3.6027,0,3.5993,3.5987,3.5995,3.6002,3.6009,3.6013,3.6016,3.6022,3.6007,3.6015,3.6026,3.6031,3.6041,3.605,3.6055,3.6053,3.6038,3.6036,3.6041,3.6045,3.6048,3.6045,3.5963,3.6033,3.6033,3.6032,3.6032,3.6032,3.604,3.6053,3.6052,3.6062,3.6063,3.6066,3.6077,3.6071,3.608,3.6087,3.6078,3.6091,3.6091,3.6097,3.6097,3.6107,3.6095,3.6103,3.6105,3.6107,3.611,3.6048,3.6108,3.6108,3.6108,3.6107,3.6107,0,3.6102,3.61,3.611,3.6115,3.6122,3.6108,3.6111,3.6118,3.613,3.6131,3.6138,3.615,3.6159,3.6153,3.616,3.6169,3.6162,3.6172,3.617,3.617,3.612,3.6114,3.6177,3.6177,3.6177,3.6177,3.6177,3.6177,3.6135,3.6155,3.6149,3.617,3.6168,3.6181,3.6184,3.6187,3.6188,3.6202,3.621,3.6206,3.6204,3.6211,3.6219,3.6217,3.622,3.6232,3.6227,3.618,3.6174,3.6167,3.6161,3.6233,3.6233,3.6276,3.6276,3.6277]}]]